Regional Weather Roundup
Issued by NWS

Home | Current Version | Previous Version | Graphics & Text | Print | Product List | Glossary On
Versions: 1 2 3 4 5 6 7 8 9 10 11 12 13 14 15 16 17 18 19 20 21 22 23 24 25 26 27 28 29 30 31 32 33 34 35 36 37 38 39 40 41 42 43 44 45 46 47 48 49 50
000
ASUS45 KTFX 221410
RWRMT
MONTANA REGIONAL WEATHER ROUNDUP
NATIONAL WEATHER SERVICE GREAT FALLS MT
800 AM MDT TUE AUG 22 2017

NOTE: "FAIR" INDICATES FEW OR NO CLOUDS BELOW 12000 FEET WITH NO
SIGNIFICANT WEATHER AND/OR OBSTRUCTIONS TO VISIBILITY.

MTZ001>007-043-221500-
WEST OF THE DIVIDE

CITY           SKY/WX    TMP DP  RH WIND       PRES   REMARKS
KALISPELL      SUNNY     50  44  80 CALM      30.16R
MISSOULA       SUNNY     50  40  68 NW3       30.19S HAZE
BUTTE          SUNNY     43  33  68 E3        30.29R
MULLAN PASS    SUNNY     59  34  39 SE8       30.26S
ANACONDA         N/A     54  36  50 S3        30.26R
DEER LODGE       N/A     48  37  66 CALM      30.27S
EUREKA           N/A     46  39  76 MISG      30.17
HAMILTON         N/A     54  39  58 S5        30.20R
LIBBY            N/A     48  41  76 CALM      30.15R
RONAN            N/A     50  45  83 CALM      30.19R
$$

MTZ008-052>055-221500-
SOUTHWEST MONTANA

CITY           SKY/WX    TMP DP  RH WIND       PRES   REMARKS
BOZEMAN        SUNNY     53  39  59 SE5       30.24S
DILLON         SUNNY     50  33  52 S12       30.26S
W YELLOWSTONE  CLOUDY    39  34  81 CALM      30.39R
ENNIS          SUNNY     48  34  57 CALM      30.32S
THREE FORKS      N/A     45  38  76 CALM      30.20R
$$

MTZ009-010-012-014-046-048-049-054-221500-
EAST SLOPES AND CENTRAL MONTANA

CITY           SKY/WX    TMP DP  RH WIND       PRES   REMARKS
CUT BANK       SUNNY     51  37  58 CALM      30.18R
GREAT FALLS    SUNNY     56  36  47 W6        30.18R
HELENA         SUNNY     56  37  49 CALM      30.22R
CHOTEAU          N/A     57  36  44 CALM      30.19S
$$

MTZ011-013-016-021-045-047-050-051-221500-
NORTH CENTRAL MONTANA

CITY           SKY/WX    TMP DP  RH WIND       PRES   REMARKS
HAVRE          SUNNY     54  38  54 E3        30.15S
LEWISTOWN      SUNNY     53  36  52 SE6       30.20S
N BAR RANCH      N/A     59  34  38 CALM      30.24S
CHINOOK          N/A     54  37  54 E9        30.15S
$$

MTZ017>020-022>027-061-062-221500-
NORTHEAST MONTANA

CITY           SKY/WX    TMP DP  RH WIND       PRES   REMARKS
JORDAN           N/A     50  31  48 CALM      30.19S
SIDNEY         SUNNY     50  42  74 S3        30.22S
WOLF POINT     SUNNY     52  32  46 CALM      30.21S
MALTA          SUNNY     54  39  58 E6        30.18S
PLENTYWOOD       N/A     54  36  50 CALM      30.20S
$$

MTZ028>42-056>058-221500-
SOUTHCENTRAL AND SOUTHEAST MONTANA

CITY           SKY/WX    TMP DP  RH WIND       PRES   REMARKS
BAKER          SUNNY     57  37  47 SE7       30.23S
BILLINGS       MOSUNNY   55  37  50 SW8       30.20S
LIVINGSTON     SUNNY     48  35  60 W3        30.24S
MILES CITY     SUNNY     59  36  42 NE7       30.18S
BIG TIMBER     SUNNY     54  34  47 CALM      30.26S
LAUREL           N/A     52  37  56 SW3       30.18F
$$

REGIONAL REPORTS...DAKOTAS

CITY           SKY/WX    TMP DP  RH WIND       PRES   REMARKS
WILLISTON      SUNNY     53  42  66 S6        30.21S
MINOT          SUNNY     59  42  53 W7        30.17R
DICKINSON      MOSUNNY   57  45  64 CALM      30.22R
BEACH            N/A     55  41  58 S5        30.26S
CROSBY           N/A     54  39  58 CALM      30.20S
TIOGA            N/A     54  39  58 NW3       30.22S
WATFORD CITY     N/A     52  39  62 CALM      30.21S
BISMARCK       SUNNY     56  46  69 CALM      30.20S
GRAND FORKS    SUNNY     60  50  69 W10       30.05R
FARGO          SUNNY     60  50  69 NW10      30.07R
BUFFALO SD       N/A     56  44  64 CALM      30.18R
RAPID CITY     SUNNY     58  43  57 SE5       30.25S
$$

REGIONAL REPORTS...WYOMING/IDAHO/WASHINGTON

CITY           SKY/WX    TMP DP  RH WIND       PRES   REMARKS
GILLETTE       SUNNY     63  40  42 S14       30.23S
SHERIDAN       SUNNY     53  42  66 CALM      30.21S
BUFFALO WY     SUNNY     65  34  31 NW3       30.26S
CODY           SUNNY     59  38  45 SW6       30.28S
YELLOWSTONE LA   N/A     41  37  86 CALM      30.46R
IDAHO FALLS    SUNNY     48  41  76 N5        30.26R
SALMON         SUNNY     46  38  73 CALM      30.25R
BOISE          SUNNY     63  39  41 SE5       30.11R
SPOKANE        PTCLDY    63  47  55 E5        30.08R
$$

REGIONAL REPORTS...ALBERTA

CITY           SKY/WX    TMP DP  RH WIND       PRES   REMARKS
EDMONTON       PTSUNNY   61  55  82 SW2       30.08S
CALGARY        MOSUNNY   55  45  67 SW3       30.16R
LETHBRIDGE     MOSUNNY   54  41  62 W5        30.14R
MEDICINE HAT   SUNNY     59  45  58 VRB2      30.12R
$$

REGIONAL REPORTS...SASKATCHEWAN

CITY           SKY/WX    TMP DP  RH WIND       PRES   REMARKS
SWIFT CURRENT  SUNNY     59  34  38 SW14G20   30.16R
REGINA         PTSUNNY   54  37  54 CALM      30.18R
SASKATOON      PTSUNNY   54  43  66 SE6       30.13S
$$



USA.gov is the U.S. government's official web portal to all federal, state and local government web resources and services.